Location: ??
(31.9467°N, 34.8903°E)
Time: 12:18:18
(UTC+00:00)

Meteor 2-15 Rocket - Pass Details

Date: 29 October 2020
Orbit: 938 x 957 km, 82.5° (Epoch: 26 November)

Event Time Altitude Azimuth Distance (km) Brightness Sun altitude
Rises 15:45:15 0° 173° (S) 3,619 7.5 -11.6°
Reaches altitude 10° 15:47:47 10° 169° (S) 2,677 6.8 -12.2°
Maximum altitude 15:53:45 57° 92° (E) 1,116 4.5 -13.4°
Drops below altitude 10° 15:59:45 10° 16° (NNE) 2,686 6.6 -14.7°
Sets 16:02:17 0° 12° (NNE) 3,633 7.3 -15.2°
